Flag for Germany Weather past 2 weeks in Sindelfingen, Baden-Württemberg, Germany

Now
54 °F

Sprinkles. Broken clouds.


Feels Like: 53 °F
Forecast: 48 / 66 °F
Wind: 3 mph from Southwest

Location: Stuttgart-Echterdingen

Current Time: Sep 2, 2014 at 8:47:42 AM

Latest Report: Sep 2, 2014 at 7:50 AM


Visibility: N/A

Pressure: 30.15 "Hg

Humidity: 100%

Dew point: 54 °F

Location of SindelfingenLocation

Historic Weather in Sindelfingen — Graph

°F

Sindelfingen temperature yesterday

Maximum temperature yesterday: 61 °F (at 2:20 PM)
Minimum temperature yesterday: 52 °F (at 4:20 AM)
Average temperature yesterday: 56 °F

Past Weeks' High & Low Weather Summary

 TemperatureHumidityPressure
High73 °F (Aug 28, 3:20 PM)100% (Aug 25, 6:20 AM)30.18 "Hg (Aug 25, 6:20 AM)
Low45 °F (Aug 25, 5:20 AM)38% (Aug 22, 4:20 PM)29.68 "Hg (Aug 26, 5:50 AM)
Average59 °F77%30.01 "Hg
* Reported Aug 18 7:20 AM — Sep 2 7:50 AM, Sindelfingen, Weather by CustomWeather, © 2014

Note: Actual official high and low records may vary slightly from our data, if they occured in-between our weather recording intervals... More about our weather records

Advertising

Sindelfingen weather history for previous 24 hours

 ConditionsComfort  
Time TempWeatherWind HumidityBarometerVisibility
7:50 AM
Sep 2
54 °FSprinkles. Broken clouds.3 mph100%30.15 "HgN/A
7:20 AM54 °FPassing clouds.1 mph94%30.15 "HgN/A
6:50 AM54 °FPartly cloudy.2 mph94%30.15 "HgN/A
6:20 AM54 °FPartly cloudy.1 mph94%30.15 "HgN/A
5:50 AM54 °FPartly cloudy.1 mph94%30.15 "HgN/A
5:20 AM54 °FPartly cloudy.2 mph94%30.15 "HgN/A
4:50 AM54 °FPartly cloudy.3 mph94%30.15 "HgN/A
4:20 AM54 °FPassing clouds.2 mph94%30.15 "HgN/A
3:50 AM54 °FPassing clouds.No wind94%30.15 "HgN/A
3:20 AM54 °FClear.1 mph94%30.15 "Hg10 mi
2:50 AM55 °FClear.2 mph88%30.15 "Hg10 mi
2:20 AM55 °FClear.2 mph88%30.15 "Hg10 mi
1:50 AM55 °FClear.2 mph94%30.15 "Hg10 mi
1:20 AM55 °FClear.1 mph94%30.15 "Hg10 mi
12:50 AM55 °FClear.2 mph88%30.15 "Hg10 mi
12:20 AM55 °FClear.2 mph88%30.15 "Hg10 mi
11:50 PM
Sep 1
57 °FClear.3 mph82%30.15 "Hg10 mi
11:20 PM57 °FClear.3 mph82%30.18 "Hg10 mi
10:20 PM57 °FClear.2 mph82%30.18 "Hg10 mi
9:50 PM57 °FClear.2 mph82%30.18 "Hg10 mi
9:20 PM59 °FClear.2 mph77%30.18 "Hg10 mi
8:50 PM59 °FPartly sunny.2 mph77%30.18 "HgN/A
8:20 PM59 °FPartly sunny.3 mph72%30.15 "HgN/A
7:50 PM59 °FPartly sunny.3 mph72%30.15 "HgN/A
7:20 PM59 °FPartly sunny.5 mph68%30.15 "HgN/A
6:50 PM59 °FPartly sunny.3 mph68%30.15 "HgN/A
6:20 PM59 °FPartly sunny.6 mph72%30.15 "HgN/A
5:50 PM59 °FPartly sunny.6 mph72%30.15 "HgN/A
5:20 PM59 °FPartly sunny.5 mph77%30.15 "HgN/A
4:50 PM59 °FPartly sunny.6 mph72%30.15 "HgN/A
4:20 PM59 °FPartly sunny.7 mph77%30.15 "HgN/A
3:50 PM59 °FPartly sunny.5 mph72%30.15 "HgN/A
3:20 PM59 °FPartly sunny.7 mph68%30.15 "HgN/A
2:50 PM61 °FPartly sunny.5 mph63%30.15 "HgN/A
2:20 PM61 °FPartly sunny.3 mph68%30.15 "HgN/A
1:50 PM59 °FBroken clouds.3 mph68%30.15 "HgN/A
1:20 PM57 °FPartly sunny.5 mph77%30.15 "HgN/A
12:50 PM55 °FPartly sunny.5 mph82%30.15 "HgN/A
12:20 PM55 °FSprinkles. Partly sunny.9 mph82%30.15 "HgN/A
11:50 AM55 °FBroken clouds.6 mph82%30.15 "HgN/A
11:20 AM55 °FBroken clouds.5 mph82%30.15 "HgN/A
10:50 AM55 °FPartly sunny.5 mph82%30.15 "HgN/A
10:20 AM55 °FPartly sunny.5 mph77%30.15 "HgN/A
9:50 AM54 °FPartly sunny.8 mph88%30.12 "HgN/A
9:20 AM54 °FPartly sunny.6 mph88%30.12 "HgN/A
8:50 AM54 °FPartly sunny.9 mph88%30.12 "HgN/A
8:20 AM54 °FScattered clouds.8 mph88%30.09 "HgN/A
Weather by CustomWeather, © 2014

See weather overviewHow to use our weather pages